Location: LDNL
(36.4545°S, 141.6685°E)
Time: 12:10:21
(UTC+10:00)

A-11 Canister half - Pass Details

Date: 18 August 2022
Orbit: 1524 x 1684 km, 47.3° (Epoch: 26 September)

Event Time Altitude Azimuth Distance (km) Brightness Sun altitude
Rises 21:13:53 0° 239° (WSW) 4,694 12.4 -39.0°
Reaches altitude 10° 21:16:59 10° 236° (SW) 3,711 11.6 -39.6°
Enters shadow 21:24:25 55° 201° (SSW) 1,808 9.3 -41.0°
Maximum altitude 21:26:17 65° 154° (SSE) 1,683 - -41.4°
Drops below altitude 10° 21:35:44 10° 73° (ENE) 3,769 - -43.2°
Sets 21:38:54 0° 69° (ENE) 4,770 - -43.8°
